Location: Piolenc
(44.1794°N, 4.7641°E)
Time: 02:02:45
(UTC+00:00)

Cosmos 1606 Rocket - Pass Details

Date: 27 January 2021
Orbit: 604 x 631 km, 82.5° (Epoch: 27 February)

Event Time Altitude Azimuth Distance (km) Brightness Sun altitude
Rises 05:26:31 0° 181° (S) 2,843 7.1 -17.5°
Reaches altitude 10° 05:28:43 10° 179° (S) 1,945 6.2 -17.1°
Maximum altitude 05:33:00 71° 96° (E) 644 3.8 -16.3°
Drops below altitude 10° 05:37:20 10° 13° (NNE) 1,967 6.2 -15.6°
Sets 05:39:34 0° 11° (N) 2,879 7.0 -15.2°
